AD8BV Weather Reports


time (UTC)temp
C
wind
direction
speed
KPH
gust
KPH
rain 1hr
cm
rain 24hr
cm
rain mn
cm
humidity
%
barometer
mb
20260509000303 15 276 0.0 0.0 0.00 0.00 0.00 37 1008.2
20260508235757 16 283 0.0 0.0 0.00 0.00 0.00 35 1008.1
20260508235254 16 282 0.0 0.0 0.00 0.00 0.00 35 1008.1
20260508234751 16 297 1.6 3.2 0.00 0.00 0.00 33 1008.1
20260508234247 16 276 0.0 0.0 0.00 0.00 0.00 36 1008.0
20260508233741 17 298 1.6 1.6 0.00 0.00 0.00 38 1008.2
20260508233239 17 325 1.6 1.6 0.00 0.00 0.00 36 1008.4
20260508232736 17 249 1.6 3.2 0.00 0.00 0.00 36 1008.1
20260508232232 17 269 0.0 1.6 0.00 0.00 0.00 39 1008.5
20260508231730 17 280 1.6 1.6 0.00 0.00 0.00 36 1007.9
20260508231227 17 255 0.0 0.0 0.00 0.00 0.00 35 1007.9
20260508230724 17 271 1.6 1.6 0.00 0.00 0.00 37 1008.0
20260508230220 17 262 4.8 8.0 0.00 0.00 0.00 36 1008.1
20260508225718 17 276 3.2 3.2 0.00 0.00 0.00 37 1007.8
20260508225214 18 282 0.0 0.0 0.00 0.00 0.00 38 1008.0
20260508224712 18 284 1.6 3.2 0.00 0.00 0.00 37 1008.1
20260508224209 18 265 0.0 0.0 0.00 0.00 0.00 36 1008.0
20260508223707 18 282 3.2 3.2 0.00 0.00 0.00 35 1008.0
20260508223204 17 344 6.4 9.7 0.00 0.00 0.00 33 1007.8
20260508222701 18 272 1.6 1.6 0.00 0.00 0.00 35 1008.4
20260508222159 18 272 1.6 3.2 0.00 0.00 0.00 34 1008.1
20260508221655 18 263 4.8 4.8 0.00 0.00 0.00 35 1008.0
20260508221150 18 260 3.2 4.8 0.00 0.00 0.00 34 1008.0
20260508220647 18 332 4.8 8.0 0.00 0.00 0.00 33 1008.1
20260508220144 18 319 4.8 4.8 0.00 0.00 0.00 34 1008.4
20260508215640 18 335 3.2 4.8 0.00 0.00 0.00 34 1008.4
20260508215137 18 13 3.2 4.8 0.00 0.00 0.00 37 1008.2
20260508214634 18 296 3.2 4.8 0.00 0.00 0.00 34 1008.4
20260508214131 18 291 4.8 8.0 0.00 0.00 0.00 34 1008.4
20260508213628 19 274 1.6 1.6 0.00 0.00 0.00 34 1008.6
20260508213124 18 266 1.6 1.6 0.00 0.00 0.00 41 1008.4
20260508212620 18 310 1.6 1.6 0.00 0.00 0.00 37 1008.9
20260508212117 19 203 3.2 4.8 0.00 0.00 0.00 37 1008.5
20260508211612 18 234 1.6 1.6 0.00 0.00 0.00 40 1008.7
20260508211109 18 193 4.8 8.0 0.00 0.00 0.00 39 1008.6
20260508210606 19 133 6.4 8.0 0.00 0.00 0.00 38 1008.7
20260508210103 18 271 3.2 3.2 0.00 0.00 0.00 37 1008.7
20260508205600 17 185 4.8 8.0 0.00 0.00 0.00 40 1008.9
20260508205057 19 263 1.6 3.2 0.00 0.00 0.00 40 1008.8
20260508204553 18 258 1.6 3.2 0.00 0.00 0.00 38 1008.7
20260508204049 18 282 0.0 1.6 0.00 0.00 0.00 39 1008.7
20260508203545 18 253 3.2 3.2 0.00 0.00 0.00 38 1009.1
20260508203041 18 317 1.6 3.2 0.00 0.00 0.00 40 1009.0
20260508202538 18 219 4.8 8.0 0.00 0.00 0.00 40 1009.0
20260508202035 17 258 1.6 1.6 0.00 0.00 0.00 39 1009.1
20260508201532 18 229 1.6 3.2 0.00 0.00 0.00 38 1009.1
20260508201028 19 268 1.6 1.6 0.00 0.00 0.00 39 1009.3
20260508200526 18 259 1.6 3.2 0.00 0.00 0.00 38 1009.3
20260508200021 19 290 0.0 1.6 0.00 0.00 0.00 39 1009.3
20260508195518 19 274 3.2 3.2 0.00 0.00 0.00 38 1009.4
20260508195014 18 167 3.2 3.2 0.00 0.00 0.00 38 1009.4
20260508194511 18 274 0.0 1.6 0.00 0.00 0.00 39 1009.5
20260508194009 18 11 6.4 9.7 0.00 0.00 0.00 37 1009.9
20260508193505 17 249 3.2 3.2 0.00 0.00 0.00 40 1009.9
20260508193002 18 218 3.2 3.2 0.00 0.00 0.00 38 1009.9
20260508192458 18 227 4.8 8.0 0.00 0.00 0.00 39 1010.0
20260508191955 17 163 3.2 4.8 0.00 0.00 0.00 41 1009.9
20260508191452 18 278 4.8 4.8 0.00 0.00 0.00 40 1010.0
20260508190949 18 288 0.0 1.6 0.00 0.00 0.00 41 1010.3
20260508190447 18 332 4.8 8.0 0.00 0.00 0.00 39 1010.2
20260508185942 17 222 3.2 3.2 0.00 0.00 0.00 45 1010.3
20260508185440 17 251 1.6 3.2 0.00 0.00 0.00 46 1010.3
20260508184937 17 261 3.2 3.2 0.00 0.00 0.00 42 1010.4
20260508184435 17 285 0.0 0.0 0.00 0.00 0.00 41 1010.5
20260508183931 17 248 3.2 4.8 0.00 0.00 0.00 40 1010.6
20260508183428 17 278 1.6 1.6 0.00 0.00 0.00 42 1010.7
20260508182923 16 277 0.0 0.0 0.00 0.00 0.00 43 1010.8
20260508182420 17 342 3.2 3.2 0.00 0.00 0.00 43 1010.8
20260508181915 17 296 0.0 1.6 0.00 0.00 0.00 45 1010.7
20260508181412 17 134 6.4 9.7 0.00 0.00 0.00 41 1010.8
20260508180910 16 189 1.6 1.6 0.00 0.00 0.00 43 1011.2
20260508180406 17 219 4.8 8.0 0.00 0.00 0.00 42 1011.1
20260508175902 17 204 3.2 3.2 0.00 0.00 0.00 40 1011.2
20260508175359 17 226 3.2 3.2 0.00 0.00 0.00 42 1010.8
20260508174857 17 199 4.8 4.8 0.00 0.00 0.00 43 1011.2
20260508174354 17 259 1.6 3.2 0.00 0.00 0.00 49 1011.2
20260508173851 16 267 3.2 3.2 0.00 0.00 0.00 45 1011.1
20260508173348 16 280 1.6 1.6 0.00 0.00 0.00 44 1011.3
20260508172843 16 269 0.0 0.0 0.00 0.00 0.00 42 1011.5
20260508172341 16 276 1.6 3.2 0.00 0.00 0.00 44 1011.4
20260508171837 16 292 1.6 3.2 0.00 0.00 0.00 52 1011.8
20260508171334 16 299 1.6 3.2 0.00 0.00 0.00 44 1011.9
20260508170831 16 250 0.0 0.0 0.00 0.00 0.00 42 1011.9
20260508170329 16 269 1.6 1.6 0.00 0.00 0.00 47 1011.7
20260508165825 16 281 1.6 1.6 0.00 0.00 0.00 45 1012.1
20260508165322 15 277 1.6 3.2 0.00 0.00 0.00 47 1012.3
20260508164818 16 331 3.2 3.2 0.00 0.00 0.00 45 1012.4
20260508164315 16 250 3.2 3.2 0.00 0.00 0.00 42 1012.2
20260508163813 16 223 6.4 8.0 0.00 0.00 0.00 45 1012.4
20260508163310 16 294 1.6 1.6 0.00 0.00 0.00 44 1012.6
20260508162806 15 259 1.6 1.6 0.00 0.00 0.00 45 1012.3
20260508162306 16 288 1.6 1.6 0.00 0.00 0.00 44 1012.6
20260508161801 16 321 4.8 8.0 0.00 0.00 0.00 42 1012.4
20260508161257 16 226 1.6 3.2 0.00 0.00 0.00 46 1012.6
20260508160755 15 137 6.4 9.7 0.00 0.00 0.00 41 1012.6
20260508160253 15 220 1.6 1.6 0.00 0.00 0.00 49 1012.4
20260508155749 15 293 1.6 1.6 0.00 0.00 0.00 45 1012.7
20260508155247 15 269 0.0 1.6 0.00 0.00 0.00 46 1012.3
20260508154743 15 180 1.6 3.2 0.00 0.00 0.00 49 1012.6
20260508154241 14 333 1.6 1.6 0.00 0.00 0.00 52 1012.8
20260508153737 15 308 3.2 3.2 0.00 0.00 0.00 49 1012.6
20260508153235 15 313 3.2 4.8 0.00 0.00 0.00 49 1012.8
20260508152731 14 280 0.0 1.6 0.00 0.00 0.00 54 1013.0
20260508152227 14 253 1.6 1.6 0.00 0.00 0.00 49 1013.0
20260508151723 13 286 3.2 3.2 0.00 0.00 0.00 53 1013.0
20260508151220 13 300 3.2 3.2 0.00 0.00 0.00 49 1013.0
20260508150717 13 281 0.0 1.6 0.00 0.00 0.00 53 1013.1
20260508150214 13 285 1.6 1.6 0.00 0.00 0.00 50 1013.2
20260508145709 13 345 4.8 4.8 0.00 0.00 0.00 48 1013.2
20260508145206 12 300 1.6 1.6 0.00 0.00 0.00 56 1013.2
20260508144703 12 228 1.6 1.6 0.00 0.00 0.00 60 1013.4
20260508144201 12 244 3.2 3.2 0.00 0.00 0.00 61 1013.3
20260508143658 12 244 3.2 3.2 0.00 0.00 0.00 62 1013.3
20260508143155 12 232 1.6 1.6 0.00 0.00 0.00 64 1013.2
20260508142651 12 316 3.2 3.2 0.00 0.00 0.00 64 1013.5
20260508142148 12 248 1.6 1.6 0.00 0.00 0.00 65 1013.4
20260508141644 11 300 0.0 0.0 0.00 0.00 0.00 65 1013.4
20260508141142 11 217 3.2 3.2 0.00 0.00 0.00 68 1013.3
20260508140640 11 195 3.2 3.2 0.00 0.00 0.00 68 1013.6
20260508140136 11 270 1.6 1.6 0.00 0.00 0.00 71 1013.6
20260508135632 11 304 1.6 1.6 0.00 0.00 0.00 70 1013.6
20260508135128 11 282 0.0 1.6 0.00 0.00 0.00 72 1013.5
20260508134625 11 313 4.8 4.8 0.00 0.00 0.00 74 1013.6
20260508134122 10 262 0.0 1.6 0.00 0.00 0.00 79 1013.7
20260508133618 10 306 1.6 3.2 0.00 0.00 0.00 78 1013.7
20260508133116 10 275 0.0 0.0 0.00 0.00 0.00 80 1013.6
20260508132614 10 269 0.0 1.6 0.00 0.00 0.00 80 1013.6
20260508132110 10 281 0.0 1.6 0.00 0.00 0.00 81 1013.8
20260508131606 10 272 0.0 0.0 0.00 0.00 0.00 83 1013.9
20260508131103 9 280 0.0 1.6 0.00 0.00 0.00 83 1014.0
20260508130559 9 263 1.6 1.6 0.00 0.00 0.00 84 1013.7
20260508130057 8 253 0.0 1.6 0.00 0.00 0.00 84 1013.7
20260508125551 8 276 0.0 1.6 0.00 0.00 0.00 86 1013.6
20260508125050 8 267 0.0 0.0 0.00 0.00 0.00 89 1013.7
20260508124548 8 279 0.0 1.6 0.00 0.00 0.00 90 1013.8
20260508124044 7 253 1.6 1.6 0.00 0.00 0.00 92 1013.8
20260508123543 7 260 0.0 1.6 0.00 0.00 0.00 93 1013.9
20260508123039 7 272 0.0 0.0 0.00 0.00 0.00 94 1013.8
20260508122536 6 263 0.0 1.6 0.00 0.00 0.00 95 1013.8
20260508122033 6 265 0.0 0.0 0.00 0.00 0.00 96 1013.7
20260508121531 6 276 0.0 0.0 0.00 0.00 0.00 96 1013.6
20260508121029 5 276 0.0 0.0 0.00 0.00 0.00 97 1013.6
20260508120526 5 271 0.0 0.0 0.00 0.00 0.00 97 1013.6
20260508120024 5 272 0.0 0.0 0.00 0.00 0.00 97 1013.6
20260508115521 5 272 0.0 0.0 0.00 0.00 0.00 97 1013.4
20260508115018 3 272 0.0 0.0 0.00 0.00 0.00 97 1013.2
20260508114515 3 271 0.0 0.0 0.00 0.00 0.00 97 1013.4
20260508114011 2 272 0.0 0.0 0.00 0.00 0.00 97 1013.2
20260508113509 2 272 0.0 0.0 0.00 0.00 0.00 97 1013.1
20260508113006 2 272 0.0 0.0 0.00 0.00 0.00 97 1013.3
20260508112503 2 271 0.0 0.0 0.00 0.00 0.00 97 1013.1
20260508111959 2 272 0.0 0.0 0.00 0.00 0.00 97 1013.0
20260508111456 1 272 0.0 0.0 0.00 0.00 0.00 97 1013.0
20260508110953 1 268 0.0 0.0 0.00 0.00 0.00 97 1013.0
20260508110451 1 268 0.0 0.0 0.00 0.00 0.00 97 1013.0
20260508105950 1 271 0.0 0.0 0.00 0.00 0.00 97 1012.8
20260508105447 0 271 0.0 0.0 0.00 0.00 0.00 97 1012.8
20260508104944 0 272 0.0 0.0 0.00 0.00 0.00 97 1012.8
20260508104442 0 272 0.0 0.0 0.00 0.00 0.00 97 1012.6
20260508103938 0 273 0.0 0.0 0.00 0.00 0.00 96 1012.6
20260508103436 0 277 0.0 0.0 0.00 0.00 0.00 96 1012.8
20260508102932 1 277 1.6 4.8 0.00 0.00 0.00 96 1012.7
20260508102431 1 271 0.0 0.0 0.00 0.00 0.00 96 1012.8
20260508101928 1 272 0.0 0.0 0.00 0.00 0.00 96 1012.6
20260508101425 1 272 0.0 0.0 0.00 0.00 0.00 96 1012.9
20260508100922 1 271 0.0 0.0 0.00 0.00 0.00 96 1012.8
20260508100421 1 271 0.0 0.0 0.00 0.00 0.00 96 1012.7
20260508095917 1 271 0.0 0.0 0.00 0.00 0.00 96 1012.8
20260508095415 1 271 0.0 0.0 0.00 0.00 0.00 96 1013.0
20260508094911 1 271 0.0 0.0 0.00 0.00 0.00 96 1012.8
20260508094408 1 271 0.0 0.0 0.00 0.00 0.00 96 1012.7
20260508093905 1 271 0.0 0.0 0.00 0.00 0.00 96 1012.8
20260508093403 1 271 0.0 0.0 0.00 0.00 0.00 96 1012.7
20260508092900 1 271 0.0 0.0 0.00 0.00 0.00 96 1012.5
20260508092357 1 271 0.0 0.0 0.00 0.00 0.00 96 1012.6
20260508091856 1 273 0.0 0.0 0.00 0.00 0.00 96 1012.8
20260508091352 1 273 0.0 0.0 0.00 0.00 0.00 96 1012.7
20260508090849 1 271 0.0 0.0 0.00 0.00 0.00 96 1013.0
20260508090348 2 271 0.0 0.0 0.00 0.00 0.00 96 1012.9
20260508085843 2 272 0.0 0.0 0.00 0.00 0.00 96 1013.0
20260508085340 2 272 0.0 0.0 0.00 0.00 0.00 96 1012.7
20260508084837 2 268 0.0 0.0 0.00 0.00 0.00 96 1012.7
20260508084334 2 268 0.0 0.0 0.00 0.00 0.00 96 1012.7
20260508083831 2 268 0.0 0.0 0.00 0.00 0.00 95 1012.8
20260508083329 2 268 0.0 0.0 0.00 0.00 0.00 95 1012.7
20260508082828 2 268 0.0 0.0 0.00 0.00 0.00 95 1012.6
20260508082326 2 268 0.0 0.0 0.00 0.00 0.00 95 1012.7
20260508081823 2 268 0.0 0.0 0.00 0.00 0.00 95 1012.7
20260508081320 2 268 0.0 0.0 0.00 0.00 0.00 95 1013.0
20260508080817 2 268 0.0 0.0 0.00 0.00 0.00 95 1012.9
20260508080315 2 268 0.0 0.0 0.00 0.00 0.00 95 1013.0
20260508075811 2 268 0.0 0.0 0.00 0.00 0.00 95 1012.9
20260508075309 2 268 0.0 0.0 0.00 0.00 0.00 95 1013.0
20260508074806 3 268 0.0 0.0 0.00 0.00 0.00 95 1012.9
20260508074303 3 268 0.0 0.0 0.00 0.00 0.00 95 1012.9
20260508073800 3 269 0.0 0.0 0.00 0.00 0.00 95 1012.9
20260508073258 3 268 0.0 0.0 0.00 0.00 0.00 95 1012.8
20260508072754 3 268 0.0 0.0 0.00 0.00 0.00 95 1012.9
20260508072251 3 269 0.0 0.0 0.00 0.00 0.00 95 1013.2
20260508071748 3 265 0.0 0.0 0.00 0.00 0.00 95 1013.0
20260508071247 3 269 0.0 0.0 0.00 0.00 0.00 95 1013.1
20260508070743 3 271 0.0 0.0 0.00 0.00 0.00 95 1013.5
20260508070242 3 271 0.0 0.0 0.00 0.00 0.00 95 1013.6
20260508065739 3 271 0.0 0.0 0.00 0.00 0.00 94 1013.4
20260508065237 3 272 0.0 0.0 0.00 0.00 0.00 94 1013.5
20260508064734 3 271 0.0 0.0 0.00 0.00 0.00 94 1013.7
20260508064233 3 271 0.0 0.0 0.00 0.00 0.00 94 1013.6
20260508063729 3 271 0.0 0.0 0.00 0.00 0.00 94 1013.4
20260508063227 3 271 0.0 0.0 0.00 0.00 0.00 94 1013.5
20260508062724 3 271 0.0 0.0 0.00 0.00 0.00 94 1013.6
20260508062222 3 271 0.0 0.0 0.00 0.00 0.00 94 1013.6
20260508061718 3 271 0.0 0.0 0.00 0.00 0.00 94 1013.4
20260508061216 3 271 0.0 0.0 0.00 0.00 0.00 93 1013.4
20260508060712 3 271 0.0 0.0 0.00 0.00 0.00 93 1013.7
20260508060210 4 271 0.0 0.0 0.00 0.00 0.00 93 1013.5
20260508055705 4 271 0.0 0.0 0.00 0.00 0.00 93 1013.6
20260508055202 4 271 0.0 0.0 0.00 0.00 0.00 93 1013.7
20260508054659 4 271 0.0 0.0 0.00 0.00 0.00 93 1013.7
20260508054156 4 271 0.0 0.0 0.00 0.00 0.00 93 1013.7
20260508053653 4 271 0.0 0.0 0.00 0.00 0.00 93 1013.8
20260508053151 4 271 0.0 0.0 0.00 0.00 0.00 93 1013.8
20260508052648 4 271 0.0 0.0 0.00 0.00 0.00 93 1013.6
20260508052145 4 271 0.0 0.0 0.00 0.00 0.00 93 1013.3
20260508051641 4 271 0.0 0.0 0.00 0.00 0.00 93 1013.6
20260508051137 4 271 0.0 0.0 0.00 0.00 0.00 93 1013.7
20260508050633 4 271 0.0 0.0 0.00 0.00 0.00 93 1013.5
20260508050131 4 271 0.0 0.0 0.00 0.00 0.00 93 1013.4
20260508045626 4 271 0.0 0.0 0.00 0.00 0.00 93 1013.5
20260508045125 4 271 0.0 0.0 0.00 0.00 0.00 92 1013.4
20260508044621 4 271 0.0 0.0 0.00 0.00 0.00 92 1013.4
20260508044117 4 271 0.0 0.0 0.00 0.00 0.00 92 1013.5
20260508043614 5 271 0.0 0.0 0.00 0.00 0.00 92 1013.4
20260508043112 5 271 0.0 0.0 0.00 0.00 0.00 91 1013.5
20260508042608 5 271 0.0 0.0 0.00 0.00 0.00 91 1013.2
20260508042106 5 271 0.0 0.0 0.00 0.00 0.00 91 1013.6
20260508041602 5 271 0.0 0.0 0.00 0.00 0.00 90 1013.4
20260508041058 5 271 0.0 0.0 0.00 0.00 0.00 90 1013.4
20260508040555 5 271 0.0 0.0 0.00 0.00 0.00 89 1013.3
20260508040053 5 271 0.0 0.0 0.00 0.00 0.00 88 1013.3
20260508035549 6 271 0.0 0.0 0.00 0.00 0.00 87 1013.1
20260508035047 6 271 0.0 0.0 0.00 0.00 0.00 86 1013.3
20260508034544 6 272 0.0 0.0 0.00 0.00 0.00 86 1013.0
20260508034041 6 273 0.0 0.0 0.00 0.00 0.00 86 1013.2
20260508033538 6 268 0.0 0.0 0.00 0.00 0.00 85 1013.4
20260508033037 6 268 0.0 0.0 0.00 0.00 0.00 85 1013.3
20260508032532 6 268 0.0 0.0 0.00 0.00 0.00 85 1013.2
20260508032031 6 268 0.0 0.0 0.00 0.00 0.00 84 1013.2
20260508031527 7 268 0.0 0.0 0.00 0.00 0.00 83 1013.3
20260508031023 7 282 1.6 1.6 0.00 0.00 0.00 83 1013.3
20260508030520 7 272 0.0 0.0 0.00 0.00 0.00 83 1013.3
20260508030018 7 271 0.0 0.0 0.00 0.00 0.00 82 1013.4
20260508025513 7 263 0.0 0.0 0.00 0.00 0.00 81 1013.3
20260508025011 7 252 1.6 1.6 0.00 0.00 0.00 82 1013.4
20260508024507 7 263 0.0 0.0 0.00 0.00 0.00 81 1013.3
20260508024004 6 265 0.0 0.0 0.00 0.00 0.00 84 1013.2
20260508023500 6 267 0.0 0.0 0.00 0.00 0.00 86 1013.2
20260508022958 6 271 0.0 0.0 0.00 0.00 0.00 86 1013.4
20260508022453 6 269 0.0 0.0 0.00 0.00 0.00 86 1013.4
20260508021950 6 268 0.0 0.0 0.00 0.00 0.00 85 1013.1
20260508021447 6 268 0.0 0.0 0.00 0.00 0.00 83 1013.2
20260508020942 6 268 0.0 0.0 0.00 0.00 0.00 83 1012.9
20260508020440 6 268 0.0 0.0 0.00 0.00 0.00 82 1013.2
20260508015937 6 340 0.0 0.0 0.00 0.00 0.00 81 1013.2
20260508015435 6 267 0.0 0.0 0.00 0.00 0.00 80 1012.8
20260508014931 7 269 0.0 0.0 0.00 0.00 0.00 78 1013.0
20260508014428 7 271 0.0 0.0 0.00 0.00 0.00 77 1013.2
20260508013924 7 271 0.0 0.0 0.00 0.00 0.00 76 1012.8
20260508013420 7 272 0.0 0.0 0.00 0.00 0.00 74 1013.0
20260508012918 8 272 0.0 0.0 0.00 0.00 0.00 74 1012.9
20260508012415 8 265 0.0 0.0 0.00 0.00 0.00 74 1012.8
20260508011912 8 258 1.6 1.6 0.00 0.00 0.00 72 1012.8
20260508011410 9 265 0.0 0.0 0.00 0.00 0.00 70 1012.9
20260508010907 9 254 1.6 1.6 0.00 0.00 0.00 69 1012.7
20260508010404 9 270 0.0 0.0 0.00 0.00 0.00 69 1013.1
20260508005901 10 270 0.0 0.0 0.00 0.00 0.00 67 1013.0
20260508005358 10 265 0.0 0.0 0.00 0.00 0.00 66 1013.2
20260508004854 10 288 1.6 1.6 0.00 0.00 0.00 65 1013.3
20260508004350 10 277 0.0 0.0 0.00 0.00 0.00 66 1013.3
20260508003847 10 263 0.0 0.0 0.00 0.00 0.00 64 1013.1
20260508003344 10 262 0.0 1.6 0.00 0.00 0.00 61 1012.9
20260508002842 10 194 1.6 3.2 0.00 0.00 0.00 59 1013.1
20260508002338 10 257 0.0 1.6 0.00 0.00 0.00 59 1012.9
20260508001834 11 354 4.8 8.0 0.00 0.00 0.00 56 1012.9
20260508001330 11 262 1.6 3.2 0.00 0.00 0.00 55 1012.4
20260508000827 11 318 3.2 4.8 0.00 0.00 0.00 53 1012.7